Wind_Speed
60 56 53 48 45 43 36 32 35 36 37 33 30 28 27 24 22 22 19 18 20 19 16 17 16 17 18 22 20 19 18 16 16 15 15 13 12 13 12 14 14 16 17
60 58 54 48 47 46 41 36 37 38 38 37 31 30 29 28 25 24 23 22 21 21 21 19 19 18 18 18 21 23 20 19 18 17 16 16 17 16 16 17 19 21 23
56 58 57 52 49 48 44 39 38 41 40 40 38 33 34 32 29 27 26 26 25 22 22 23 20 20 19 18 19 22 22 21 22 22 20 21 20 17 17 17 18 22 25
56 56 56 55 47 48 46 41 41 41 43 42 41 40 35 33 31 29 29 29 28 28 27 25 24 23 21 20 19 19 21 22 21 23 23 22 19 20 20 23 25 26 25
56 56 56 55 48 46 49 45 42 42 43 43 43 41 40 36 34 33 32 32 31 32 33 28 25 25 24 23 22 21 20 21 23 23 22 23 24 25 24 26 27 28 25
53 55 55 55 51 49 50 48 45 44 43 44 44 44 43 40 40 38 37 36 33 34 35 30 27 25 26 25 23 22 22 20 21 24 23 24 23 24 27 27 27 30 26
51 53 55 56 53 52 51 50 48 47 44 43 43 42 42 41 39 37 36 35 33 33 31 28 27 25 26 26 23 21 22 24 23 21 25 23 24 23 24 27 28 23 24
53 52 53 55 54 53 53 52 50 49 47 43 41 41 38 37 36 34 31 33 32 27 24 24 23 23 25 25 24 23 23 23 25 22 23 24 29 23 25 26 24 24 24
55 53 54 55 56 54 54 53 53 51 47 44 39 35 33 33 28 25 28 33 32 27 25 19 18 20 20 22 23 24 23 21 19 18 21 22 21 24 22 21 23 24 27
57 55 54 55 56 56 53 52 52 51 47 42 34 31 29 25 17 19 19 25 28 26 19 19 20 19 19 21 23 22 23 19 17 17 20 20 20 17 21 23 21 19 16
54 56 55 54 55 55 54 52 50 49 42 36 33 30 25 20 20 20 22 23 26 16 16 15 16 18 21 24 24 18 16 13 15 16 17 14 11 16 17 12 9 12 16
54 56 54 54 54 53 53 51 47 42 38 38 36 29 26 27 28 27 24 22 19 17 16 16 17 18 18 16 12 12 15 15 15 15 10 8 11 14 9 10 12 15 19
52 54 55 51 50 50 52 52 46 40 41 43 38 33 34 31 24 21 18 17 19 17 17 18 17 15 12 11 10 11 14 15 15 12 8 11 12 12 12 13 15 19 22
54 54 54 55 52 49 50 51 51 44 45 42 38 38 38 27 25 19 17 20 22 23 20 18 15 12 11 10 10 12 12 13 13 12 12 12 13 13 15 16 19 21 23
49 51 53 52 49 46 43 40 41 42 40 38 36 33 33 35 29 23 23 25 24 20 18 18 16 14 13 11 12 12 12 12 12 14 16 15 14 17 18 16 18 19 17
41 46 45 47 49 46 43 41 35 33 38 28 18 12 19 19 20 23 23 20 19 18 19 17 15 14 11 12 12 12 12 12 11 13 15 17 18 18 15 16 18 14 15
33 34 41 47 46 40 39 33 30 20 8 2 6 19 20 22 24 25 22 20 18 17 17 15 15 14 15 12 12 10 8 7 9 12 14 16 16 15 18 18 10 14 16
34 37 40 37 39 41 32 35 22 31 29 41 35 33 25 21 23 21 21 19 19 19 16 15 16 16 13 9 10 8 5 5 8 10 11 13 16 17 12 11 13 15 14
25 21 21 16 16 25 18 21 21 30 50 37 33 30 28 25 23 21 19 17 18 17 17 16 15 13 10 9 9 8 6 8 10 11 12 14 13 11 11 13 13 13 15
30 15 40 38 16 28 17 29 36 41 37 32 34 34 32 31 29 25 22 20 17 16 16 14 13 10 10 11 10 8 6 8 8 7 8 9 11 10 11 14 15 15 15
32 23 23 25 30 33 31 35 39 37 37 36 33 31 25 22 20 20 22 20 16 14 12 10 9 11 11 11 10 6 5 8 9 9 9 10 10 10 11 15 15 15 15
27 24 26 28 27 28 29 29 29 27 27 27 27 26 24 21 19 19 21 17 15 12 9 9 8 11 9 8 8 7 7 7 9 10 11 10 11 12 13 16 14 14 14
14 15 18 21 22 24 23 23 24 25 27 28 27 28 26 22 18 20 19 17 18 15 13 14 11 12 11 8 9 10 9 8 11 12 10 9 11 13 16 15 14 14 14
12 13 14 14 15 17 22 20 18 18 17 18 20 22 22 20 19 19 20 20 19 17 17 18 15 15 14 8 12 10 9 13 15 11 8 9 12 13 14 14 13 13 13
12 11 9 6 6 9 11 12 12 13 13 13 13 13 18 17 16 18 20 21 17 16 18 17 18 17 15 11 12 8 6 11 8 8 8 11 13 16 17 16 13 13 12
2 4 4 5 5 6 8 13 13 12 11 10 11 12 14 18 15 18 20 20 18 16 15 16 18 15 12 11 11 9 7 4 6 5 7 10 13 13 13 13 12 12 11
Wind_Direction
232 232 232 232 235 236 232 231 227 226 224 232 234 237 234 236 232 236 240 242 244 243 243 241 243 242 242 241 249 253 253 256 262 267 273 265 272 292 294 294 292 293 294
231 231 232 233 234 236 233 231 227 225 227 228 232 232 233 236 236 239 243 247 252 252 247 247 243 242 243 244 246 250 255 261 268 270 268 269 278 289 304 303 290 296 301
232 230 230 232 232 235 233 230 229 225 226 228 230 234 234 237 241 246 252 254 256 261 256 251 254 246 251 244 252 254 255 264 265 267 271 278 281 287 290 300 302 300 298
232 232 229 231 233 233 232 230 229 226 226 227 232 236 238 239 244 248 252 255 258 262 260 254 252 250 254 259 254 255 259 261 265 263 271 278 285 294 305 305 299 305 299
231 232 232 230 231 233 234 230 230 228 229 230 232 237 240 242 246 249 254 259 262 265 261 258 257 255 254 260 264 266 267 267 264 261 266 274 279 282 297 306 298 307 296
231 234 234 231 229 231 233 231 231 233 229 230 233 235 239 243 246 251 255 258 263 264 262 261 260 263 256 257 263 264 264 269 271 268 272 276 280 295 293 295 295 300 296
233 235 234 233 229 230 232 232 231 232 233 233 232 235 238 242 246 251 254 260 264 268 268 267 263 262 256 256 260 263 264 262 260 263 269 274 291 289 294 293 293 290 290
233 233 232 232 233 230 231 233 233 232 232 234 233 234 238 243 248 252 257 262 264 265 266 269 263 256 252 256 261 263 269 267 259 265 263 275 284 282 291 292 289 289 290
231 232 236 234 233 231 231 232 233 234 233 233 234 233 235 240 244 251 259 259 259 264 261 267 253 251 246 253 257 266 271 268 262 262 272 286 286 291 289 285 287 291 294
233 237 238 236 233 233 233 232 233 234 234 233 231 227 228 234 231 238 258 256 256 262 257 260 249 241 244 252 255 266 270 263 267 261 277 280 289 290 291 289 291 290 294
237 238 235 235 235 235 234 232 232 232 230 230 227 220 213 211 213 243 248 253 259 246 253 239 231 242 251 255 263 256 259 261 266 270 277 279 296 309 302 293 277 295 305
237 234 235 235 234 233 233 231 229 228 223 219 219 209 204 203 216 222 233 227 245 232 221 221 239 247 252 250 236 251 257 257 263 273 262 273 308 329 312 297 302 310 314
232 233 235 235 238 233 229 228 224 221 218 215 209 205 203 206 208 210 213 224 209 206 211 226 233 235 223 226 226 249 239 245 259 253 261 289 301 307 308 303 303 307 309
238 238 235 232 229 228 231 233 222 214 214 216 212 205 197 206 205 221 219 203 202 208 217 225 224 214 207 211 234 244 242 248 243 241 253 266 276 288 298 298 301 307 312
249 240 231 227 219 218 216 212 213 220 222 222 220 214 208 201 201 207 196 197 202 211 215 214 207 212 212 229 230 227 223 229 241 252 267 274 279 285 293 291 296 306 302
245 231 218 211 206 204 196 193 210 221 226 223 205 239 222 221 179 182 191 195 201 205 202 208 207 207 209 198 199 213 237 247 257 260 269 271 280 286 288 293 299 295 305
227 207 201 205 192 184 183 171 151 107 357 166 196 218 206 180 176 185 188 190 189 190 192 195 196 194 188 202 217 229 230 253 265 265 270 279 285 290 295 298 289 301 306
197 204 192 174 163 165 168 178 192 189 264 219 176 178 184 180 176 175 182 186 181 178 176 180 189 191 198 223 230 231 243 265 272 279 280 280 283 291 290 292 298 306 307
179 169 150 139 131 162 190 210 235 198 202 179 159 164 168 169 168 178 184 191 183 178 176 183 199 206 207 204 213 240 256 287 292 284 277 275 271 276 289 301 301 299 303
112 146 212 209 179 190 191 165 172 178 173 167 171 173 171 177 178 181 184 183 184 182 185 194 209 217 207 208 224 239 277 297 287 282 278 264 261 269 290 304 301 293 303
201 191 175 143 160 165 163 167 169 166 168 172 173 174 175 181 183 190 187 186 185 189 195 199 220 227 225 219 241 255 320 324 306 303 298 286 263 271 289 307 300 296 301
123 127 124 139 154 159 158 160 156 154 163 170 173 172 180 184 191 187 185 184 188 191 189 188 195 202 208 231 251 263 286 333 320 309 300 280 262 269 283 297 292 296 294
103 116 144 145 149 151 151 157 166 174 182 182 184 184 183 187 185 185 185 191 195 193 195 196 201 206 215 253 276 268 274 325 317 293 293 257 252 270 287 286 280 286 295
92 113 140 147 167 177 172 178 189 194 197 194 195 193 192 188 190 190 198 201 202 204 213 213 217 225 231 259 281 265 282 302 305 287 275 262 269 277 283 285 275 282 297
63 71 79 91 139 165 186 185 182 202 208 204 189 206 199 199 195 205 208 205 207 221 229 227 235 233 226 257 269 249 277 305 293 280 276 278 278 280 282 275 267 276 286
337 45 83 102 124 156 176 165 166 166 155 158 175 199 203 197 210 213 216 212 210 217 221 228 232 224 230 253 251 242 241 273 9 344 308 292 283 274 267 257 259 280 284
Height
1476 1484 1490 1496 1501 1506 1511 1514 1517 1521 1525 1529 1533 1536 1539 1542 1545 1547 1549 1551 1552 1553 1554 1556 1557 1559 1560 1560 1562 1563 1563 1564 1565 1566 1566 1566 1566 1566 1566 1565 1565 1565 1564
1467 1474 1481 1488 1493 1497 1503 1507 1510 1513 1518 1522 1527 1530 1533 1537 1539 1542 1544 1546 1548 1549 1550 1552 1553 1554 1555 1557 1557 1559 1560 1561 1562 1562 1563 1564 1564 1563 1562 1561 1561 1561 1560
1458 1465 1472 1478 1483 1488 1494 1500 1502 1506 1510 1515 1519 1523 1526 1530 1534 1536 1540 1542 1544 1546 1547 1548 1550 1550 1551 1552 1553 1555 1556 1557 1557 1558 1558 1559 1560 1560 1559 1559 1557 1556 1555
1448 1455 1462 1468 1474 1479 1485 1491 1494 1498 1503 1507 1510 1515 1520 1525 1529 1532 1534 1536 1539 1540 1541 1542 1545 1547 1548 1549 1549 1550 1552 1552 1552 1553 1554 1554 1555 1555 1555 1555 1553 1551 1548
1439 1445 1450 1459 1468 1473 1478 1483 1487 1491 1495 1499 1505 1509 1513 1518 1521 1525 1528 1529 1532 1533 1534 1538 1541 1542 1544 1545 1546 1547 1548 1547 1548 1549 1550 1550 1550 1550 1550 1549 1547 1545 1543
1431 1434 1440 1449 1458 1463 1468 1474 1480 1483 1487 1492 1496 1501 1505 1508 1512 1516 1518 1521 1524 1526 1528 1534 1535 1536 1538 1540 1541 1542 1543 1544 1544 1545 1545 1544 1545 1546 1546 1543 1542 1540 1537
1419 1425 1431 1437 1447 1453 1459 1465 1469 1473 1477 1481 1487 1492 1496 1500 1503 1507 1512 1515 1516 1518 1522 1525 1529 1530 1531 1534 1536 1536 1536 1537 1538 1537 1539 1538 1537 1539 1538 1538 1537 1534 1533
1409 1415 1422 1428 1434 1442 1449 1454 1460 1464 1468 1472 1478 1484 1490 1493 1497 1503 1508 1510 1512 1512 1516 1517 1520 1522 1525 1528 1530 1531 1531 1531 1531 1531 1534 1534 1532 1533 1532 1532 1530 1528 1526
1399 1406 1411 1418 1424 1430 1437 1442 1449 1455 1460 1464 1470 1478 1483 1487 1493 1499 1504 1504 1505 1507 1508 1511 1513 1516 1519 1522 1523 1524 1526 1525 1527 1528 1530 1529 1529 1527 1526 1526 1525 1522 1520
1390 1397 1402 1407 1414 1419 1425 1432 1438 1444 1451 1458 1465 1471 1477 1482 1488 1491 1494 1497 1500 1502 1503 1505 1508 1510 1513 1515 1516 1518 1518 1521 1522 1522 1522 1523 1522 1522 1521 1520 1518 1517 1516
1384 1389 1395 1399 1404 1410 1417 1422 1428 1435 1444 1453 1458 1463 1470 1474 1477 1480 1480 1489 1494 1496 1498 1500 1503 1505 1507 1508 1510 1511 1514 1516 1517 1517 1517 1517 1518 1517 1515 1514 1514 1514 1512
1378 1381 1385 1391 1394 1402 1409 1416 1423 1431 1440 1443 1449 1456 1460 1464 1467 1469 1467 1479 1487 1488 1492 1497 1499 1500 1501 1503 1504 1507 1510 1512 1513 1513 1513 1513 1513 1512 1511 1512 1511 1510 1508
1369 1372 1376 1383 1387 1394 1400 1407 1415 1422 1429 1433 1437 1444 1449 1456 1463 1467 1462 1474 1481 1484 1490 1492 1492 1493 1496 1499 1500 1503 1505 1507 1508 1509 1509 1509 1510 1510 1508 1508 1508 1506 1503
1360 1362 1365 1370 1377 1379 1391 1403 1400 1412 1419 1426 1434 1435 1438 1447 1453 1459 1459 1469 1474 1480 1483 1486 1487 1489 1491 1493 1496 1500 1501 1503 1506 1506 1506 1505 1505 1505 1505 1503 1503 1501 1497
1361 1360 1360 1363 1369 1376 1387 1398 1402 1410 1416 1420 1425 1429 1430 1436 1432 1448 1456 1462 1468 1473 1475 1480 1481 1485 1487 1489 1493 1496 1498 1500 1501 1502 1502 1502 1499 1500 1500 1499 1498 1496 1493
1351 1352 1357 1358 1361 1367 1374 1385 1398 1404 1410 1416 1423 1426 1431 1441 1441 1450 1459 1461 1465 1468 1470 1477 1479 1480 1482 1486 1489 1492 1495 1496 1497 1498 1498 1499 1497 1496 1496 1495 1493 1491 1489
1346 1351 1352 1355 1357 1368 1377 1381 1382 1401 1413 1395 1405 1428 1442 1438 1440 1451 1454 1458 1459 1462 1465 1471 1475 1477 1479 1483 1486 1488 1491 1492 1494 1494 1493 1495 1494 1492 1491 1490 1489 1488 1486
1338 1344 1351 1354 1362 1361 1368 1376 1382 1382 1411 1436 1417 1425 1437 1436 1443 1447 1453 1457 1457 1458 1458 1464 1472 1475 1476 1480 1484 1487 1488 1489 1489 1489 1490 1491 1490 1489 1488 1487 1487 1485 1483
1336 1345 1356 1362 1351 1360 1369 1374 1378 1383 1411 1414 1401 1417 1429 1433 1436 1445 1451 1455 1455 1455 1457 1462 1469 1471 1473 1477 1480 1484 1484 1484 1485 1485 1485 1485 1485 1484 1485 1485 1484 1483 1480
1315 1347 1354 1349 1332 1357 1376 1374 1389 1395 1399 1402 1412 1420 1425 1431 1431 1435 1444 1449 1452 1453 1455 1459 1464 1466 1470 1473 1477 1478 1479 1480 1480 1480 1480 1481 1482 1482 1482 1482 1481 1480 1478
1337 1360 1362 1348 1357 1366 1375 1382 1391 1392 1397 1405 1413 1418 1422 1427 1430 1438 1444 1447 1447 1448 1452 1456 1460 1464 1467 1471 1474 1475 1475 1475 1475 1476 1476 1477 1478 1478 1477 1478 1477 1476 1475
1357 1360 1354 1359 1370 1376 1378 1384 1387 1391 1401 1407 1412 1415 1419 1426 1431 1433 1438 1442 1446 1449 1449 1454 1457 1461 1464 1467 1471 1472 1472 1472 1472 1473 1473 1472 1475 1475 1474 1474 1473 1473 1472
1365 1368 1369 1372 1374 1377 1382 1389 1392 1397 1403 1403 1409 1413 1419 1425 1425 1429 1432 1437 1443 1446 1450 1451 1454 1457 1460 1464 1467 1467 1468 1467 1468 1470 1469 1468 1469 1471 1471 1470 1470 1469 1468
1376 1374 1376 1375 1378 1384 1385 1392 1397 1400 1403 1403 1407 1411 1417 1419 1424 1426 1431 1437 1443 1443 1445 1448 1451 1454 1459 1461 1464 1464 1465 1464 1464 1464 1464 1464 1466 1466 1466 1467 1467 1466 1465
1377 1378 1377 1380 1383 1383 1386 1389 1394 1398 1401 1402 1404 1411 1413 1415 1421 1427 1432 1433 1438 1442 1445 1446 1449 1451 1454 1457 1459 1460 1461 1460 1460 1461 1460 1462 1460 1462 1462 1463 1463 1464 1463
1376 1382 1382 1384 1385 1387 1390 1392 1395 1395 1397 1399 1401 1408 1413 1418 1422 1425 1428 1432 1434 1439 1441 1443 1446 1447 1450 1454 1453 1455 1456 1457 1458 1459 1458 1456 1457 1456 1457 1459 1460 1460 1460